Flag for Belgium Weather past 2 weeks in Brussels, Belgium

Now
54 °F

Fog.


Feels Like: 53 °F
Forecast: 49 / 61 °F
Wind: 3 mph from Southwest

Location: Brussels National Airport

Current Time: Sep 3, 2015 at 5:42:13 AM

Latest Report: Sep 3, 2015 at 4:50 AM


Visibility: 3 mi

Pressure: 29.98 "Hg

Humidity: 94%

Dew point: 52 °F

Location of BrusselsLocation

Historic Weather in Brussels — Graph

°F

Brussels temperature yesterday

Maximum temperature yesterday: 66 °F (at 2:50 PM)
Minimum temperature yesterday: 50 °F (at 6:20 AM)
Average temperature yesterday: 57 °F

Past Weeks' High & Low Weather Summary

 TemperatureHumidityPressure
High86 °F (Aug 30, 2:50 PM)94% (Aug 21, 4:50 AM)30.24 "Hg (Aug 21, 4:50 AM)
Low50 °F (Aug 29, 7:20 AM)32% (Aug 22, 3:50 PM)29.47 "Hg (Aug 24, 2:20 PM)
Average65 °F73%29.96 "Hg
* Reported Aug 19 4:20 AM — Sep 3 4:20 AM, Brussels, Weather by CustomWeather, © 2015

Note: Actual official high and low records may vary slightly from our data, if they occured in-between our weather recording intervals... More about our weather records

Advertising

Brussels weather history for previous 24 hours

 ConditionsComfort  
Time TempWeatherWind HumidityBarometerVisibility
4:20 AM
Thu, Sep 3
54 °FFog.2 mph94%29.98 "Hg3 mi
3:50 AM54 °FPassing clouds.2 mph94%29.98 "Hg4 mi
3:20 AM54 °FLight rain. Clear.5 mph94%29.98 "Hg4 mi
2:50 AM52 °FLight rain. Clear.5 mph94%30.01 "Hg4 mi
2:20 AM50 °FClear.5 mph94%30.01 "Hg5 mi
1:50 AM52 °FClear.3 mph94%30.01 "Hg6 mi
1:20 AM52 °FClear.5 mph94%30.01 "Hg10 mi
12:50 AM52 °FClear.5 mph94%30.01 "Hg10 mi
12:20 AM52 °FClear.3 mph94%30.01 "Hg10 mi
11:50 PM
Wed, Sep 2
54 °FClear.5 mph88%30.01 "Hg10 mi
11:20 PM54 °FClear.3 mph94%30.01 "Hg10 mi
10:50 PM55 °FClear.3 mph88%30.01 "Hg10 mi
10:20 PM55 °FClear.No wind88%30.01 "Hg10 mi
9:50 PM57 °FSprinkles. Passing clouds.1 mph77%30.01 "HgN/A
9:20 PM57 °FSprinkles. Passing clouds.5 mph77%30.04 "HgN/A
8:50 PM57 °FSprinkles. Passing clouds.2 mph77%30.04 "HgN/A
8:20 PM59 °FPassing clouds.6 mph72%30.01 "HgN/A
7:50 PM59 °FScattered showers. Passing clouds.7 mph68%30.01 "HgN/A
7:20 PM59 °FScattered showers. Passing clouds.5 mph68%30.01 "HgN/A
6:50 PM59 °FPassing clouds.6 mph68%30.01 "HgN/A
6:20 PM61 °FSprinkles. Scattered clouds.8 mph63%30.01 "HgN/A
5:50 PM63 °FScattered clouds.7 mph59%30.01 "HgN/A
5:20 PM63 °FScattered clouds.8 mph64%30.01 "HgN/A
4:50 PM63 °FPassing clouds.7 mph59%30.01 "HgN/A
4:20 PM63 °FPassing clouds.8 mph59%30.01 "HgN/A
3:50 PM63 °FPassing clouds.7 mph59%30.01 "HgN/A
3:20 PM63 °FScattered clouds.8 mph56%30.01 "HgN/A
2:50 PM66 °FScattered clouds.6 mph60%30.01 "HgN/A
2:20 PM64 °FScattered clouds.7 mph60%30.01 "HgN/A
1:50 PM64 °FScattered clouds.7 mph64%30.01 "HgN/A
1:20 PM64 °FScattered clouds.8 mph64%30.04 "HgN/A
12:50 PM64 °FScattered clouds.7 mph68%30.04 "HgN/A
12:20 PM63 °FScattered clouds.9 mph68%30.04 "HgN/A
11:50 AM63 °FScattered clouds.7 mph73%30.04 "HgN/A
11:20 AM59 °FScattered clouds.8 mph82%30.04 "HgN/A
10:50 AM59 °FScattered clouds.9 mph82%30.04 "HgN/A
10:20 AM59 °FScattered clouds.9 mph82%30.04 "HgN/A
9:50 AM59 °FScattered clouds.7 mph82%30.04 "HgN/A
9:20 AM59 °FScattered clouds.3 mph82%30.04 "HgN/A
8:50 AM55 °FPassing clouds.3 mph88%30.04 "HgN/A
8:20 AM54 °FPassing clouds.5 mph88%30.04 "HgN/A
7:50 AM52 °FPassing clouds.5 mph94%30.04 "HgN/A
7:20 AM50 °FPassing clouds.6 mph94%30.04 "HgN/A
6:50 AM50 °FPassing clouds.6 mph94%30.04 "HgN/A
6:20 AM50 °FClear.5 mph94%30.04 "Hg10 mi
5:50 AM52 °FClear.6 mph94%30.04 "Hg10 mi
5:20 AM52 °FPassing clouds.6 mph94%30.04 "HgN/A
Weather by CustomWeather, © 2015

See weather overviewHow to use our weather pages